OneWeb SL0029

operational
NORAD ID: 45445 Int'l Des: 2020-020 Owner: ONEWEB Country: UK Constellation: oneweb
LEOCIRCULARPOLARONEWEB_TYPE

About OneWeb SL0029

Description loading...

Live Position

Loading 3D Globe...

Upcoming Passes

Altitude History

Altitude vs Time

uPlot chart will show altitude changes over time

Two-Line Element Set

1 45445U 20020X 25303.74518917 -.00000229 00000-0 -68306-3 0 9992
2 45445 87.8853 66.7514 0001554 104.8489 255.2811 13.11413634272586
Epoch: Oct 30, 2025 • Age: 10 hours

Current Status

Altitude 1228.9 km
Velocity 7.24 km/s
Sub-Earth Point -29.25°S, 146.59°E
Launch Date Mar 21, 2020
Age 5.6 years
Type internet

Technical Details

Classification Payload
Mass 148.00 kg
Dry Mass 140.00 kg
Total Mass 148.00 kg
Length 1.30 m
Diameter 1.00 m
Span 5.00 m
Shape Trapezoid+2 pan
Manufacturer ONEWUS
Bus Type ARROW
Phase Status In Orbit
Owner/State ONEWEB/UK

Large Constellations

Loading constellations...